RH
59 61 58 43 29 19 9 7 9 11 12 12 12 12 13 13 14 15 17 23 29 29 25 23 22 20 18 15 12 9 7 7 8 7 9 14 17 18 18 15 13 12 10 9 9 7 8 11 14 16 16 14 13 14 15 16 17 17 16 16 16 15 14 14 12 12 13 14 15 17 19 21 22 24 25 24 23 24 25 26 27 27 25 21 17
69 68 70 65 51 36 22 12 9 8 9 10 10 10 12 13 13 14 15 18 24 29 28 24 22 21 19 16 13 11 8 6 6 6 7 10 13 17 15 9 11 15 11 8 7 6 6 7 8 12 14 14 12 11 13 14 15 17 18 18 18 18 18 17 16 15 16 18 18 19 20 22 22 22 23 24 24 22 21 18 17 16 16 15 15
86 84 87 85 73 60 48 35 25 16 10 12 14 13 13 14 16 15 14 15 18 24 28 27 24 21 20 18 14 11 9 7 6 6 7 8 8 10 10 6 6 10 10 8 6 6 7 6 6 7 8 10 10 9 11 12 12 14 15 16 17 17 18 18 18 18 18 19 19 19 19 20 20 19 18 18 18 16 15 13 12 13 14 14 14
97 93 92 88 79 72 68 64 58 43 23 13 12 13 15 16 17 17 16 16 16 18 23 27 26 23 20 19 16 13 11 8 6 6 6 7 8 8 8 7 7 7 7 8 7 7 7 6 7 7 7 7 8 8 9 10 10 11 12 13 14 14 15 15 14 15 15 15 15 16 15 15 15 14 14 14 14 13 13 13 13 13 14 16 17
96 91 91 90 84 77 76 80 81 72 53 34 19 11 12 14 15 16 16 16 16 16 18 22 25 25 22 20 18 17 14 10 7 6 6 6 7 8 8 8 8 7 7 7 7 7 6 6 7 7 7 7 7 7 8 8 9 9 10 10 11 11 11 11 11 11 11 12 12 13 13 12 12 12 11 12 12 13 13 13 15 17 18 19 19
95 90 90 93 88 79 77 82 85 83 77 68 48 26 17 16 13 13 14 14 15 16 16 17 20 23 24 22 20 18 17 14 9 7 7 6 6 7 8 8 8 8 7 7 6 6 6 6 6 6 7 7 7 7 7 8 8 8 9 9 10 10 10 9 10 10 10 11 11 11 11 11 11 11 11 12 13 14 16 18 19 20 20 20 20
95 90 88 94 94 86 80 82 85 85 81 78 66 46 33 25 17 13 12 12 14 14 15 16 16 18 21 21 21 20 18 17 13 8 7 6 6 6 6 8 8 7 7 7 7 6 6 6 6 7 7 7 7 7 7 7 8 8 8 9 9 9 9 9 9 10 10 10 10 10 10 11 12 13 13 15 17 19 20 22 23 22 22 22 21
91 94 93 94 94 91 88 86 88 92 90 82 69 55 48 43 35 28 18 11 12 12 12 14 14 14 16 18 18 18 18 18 16 12 8 6 6 5 5 6 7 7 8 8 7 7 7 7 7 7 7 7 7 7 7 8 8 8 8 8 9 9 9 9 9 9 10 10 10 11 12 13 14 16 18 19 21 23 24 26 27 26 25 25 25
79 87 92 94 94 94 94 90 87 88 89 84 71 60 58 56 52 48 37 22 16 13 11 11 12 13 13 14 16 16 16 17 17 15 11 8 6 5 5 5 5 6 7 7 8 8 8 7 7 7 7 8 8 8 8 8 8 9 9 8 9 9 9 9 10 10 11 11 12 13 15 18 20 21 23 24 25 27 28 29 29 29 29 29 29
65 68 74 84 94 98 95 92 89 83 79 79 76 69 64 59 55 57 55 44 31 19 11 9 11 14 15 13 13 14 14 15 16 16 14 10 8 6 5 5 4 5 5 6 7 8 8 8 7 7 7 8 8 8 8 9 9 9 10 10 10 10 11 11 12 13 14 14 16 18 21 24 24 25 26 26 27 29 31 32 32 32 33 32 32
64 62 63 70 86 97 95 91 89 82 74 74 76 71 61 56 56 61 65 66 55 33 17 13 14 15 17 16 14 13 13 13 13 14 14 12 9 7 5 4 4 4 4 5 6 7 8 9 9 8 8 7 8 8 8 10 11 11 12 12 13 13 13 14 15 16 17 19 21 23 24 26 25 25 26 27 28 30 31 30 29 29 30 30 28
66 65 64 67 80 94 97 91 87 82 77 78 81 76 64 56 58 65 72 81 78 50 24 19 21 17 15 17 17 14 13 12 12 12 12 12 10 8 6 5 4 5 5 4 5 6 7 8 9 10 10 8 8 8 9 10 11 13 13 13 14 15 15 16 17 18 19 22 24 24 24 24 24 24 24 25 27 28 28 27 26 26 27 26 23
67 68 65 62 68 81 90 93 91 85 84 85 86 84 77 67 64 68 75 86 89 68 38 23 24 24 20 15 14 13 12 11 11 11 11 11 11 10 8 6 5 5 5 5 5 5 5 6 8 9 11 11 10 10 10 12 12 12 13 13 15 16 16 17 18 19 20 21 23 24 23 21 21 22 20 19 21 22 22 22 22 22 23 22 22
56 63 66 63 62 67 76 83 83 80 84 91 92 88 84 80 79 81 84 89 92 86 65 36 24 31 34 25 13 9 9 9 9 10 10 10 11 11 10 9 8 6 6 6 5 5 5 5 6 7 9 11 12 12 11 12 12 12 13 14 15 16 17 18 19 19 20 20 21 22 22 20 18 18 16 14 15 16 15 15 16 16 16 17 17
36 41 51 59 62 65 69 70 69 69 75 86 95 96 94 93 92 91 91 90 88 89 82 59 36 31 38 37 23 9 6 8 8 8 9 9 10 10 11 10 10 9 7 7 6 6 5 5 5 6 7 8 10 12 13 12 11 11 12 14 16 16 16 17 18 18 19 19 19 20 20 19 17 17 16 15 14 14 13 13 13 13 13 13 12
27 23 29 39 45 51 56 57 57 60 65 71 81 92 98 98 93 86 81 79 77 78 80 74 56 38 34 39 35 22 10 5 6 8 9 9 9 9 9 10 10 10 9 7 6 6 6 5 5 5 5 6 7 9 11 12 11 11 12 12 13 15 16 16 16 16 17 17 17 17 18 17 17 16 16 15 15 14 13 13 13 11 10 10 10
27 21 21 26 30 34 40 44 47 51 56 61 66 74 84 91 92 88 81 76 75 75 76 77 68 52 44 44 46 42 31 17 11 10 8 8 9 8 9 9 9 9 9 7 7 6 5 5 5 5 5 4 6 7 8 10 10 10 11 11 11 12 13 14 14 14 15 15 14 15 16 16 16 15 15 15 14 13 12 12 12 9 8 8 8
31 26 25 26 27 29 31 34 36 39 44 52 56 60 67 76 83 84 81 79 79 79 81 84 76 60 54 55 53 52 50 42 33 23 12 8 8 7 8 9 9 9 9 8 7 6 6 5 4 5 5 5 5 5 6 7 9 9 9 10 10 10 11 11 10 10 11 12 12 13 13 14 14 13 14 14 13 11 9 9 9 7 6 6 6
34 32 30 28 29 31 33 33 31 31 35 41 45 48 53 59 64 66 66 69 75 76 81 90 86 67 61 68 67 60 55 52 49 41 29 20 14 12 10 7 7 8 8 8 8 7 6 7 6 5 5 5 5 6 5 5 6 6 7 7 8 10 11 9 7 6 7 8 9 10 10 11 11 11 11 11 10 8 7 6 6 5 5 5 5
35 33 31 29 29 29 31 33 31 28 29 32 34 37 41 43 44 44 43 46 55 63 70 79 82 72 70 78 81 74 64 57 53 52 47 39 34 33 30 21 15 13 9 6 7 8 7 7 6 6 6 5 5 4 5 5 5 5 5 5 6 7 8 7 6 6 6 6 6 7 7 7 8 8 8 8 7 7 6 5 5 5 4 5 5
33 30 28 28 27 25 28 31 30 26 25 27 30 32 34 35 34 32 29 26 30 39 50 60 66 67 71 79 85 84 79 71 64 60 58 54 50 48 48 45 42 39 31 17 8 7 11 12 9 6 5 6 6 5 4 4 4 4 5 5 5 6 6 6 5 5 5 6 6 6 6 7 7 7 7 7 6 6 5 5 4 4 4 4 5
32 29 27 25 25 26 28 28 24 19 17 19 22 25 26 28 28 28 27 24 21 22 29 39 48 55 62 70 79 86 88 84 78 72 68 66 62 56 55 58 61 62 57 43 25 15 17 22 21 16 10 6 4 5 6 5 5 4 5 4 4 4 4 4 5 5 5 5 5 6 6 6 7 7 6 6 6 5 5 5 4 4 4 4 4
30 29 28 26 24 24 24 23 19 16 16 15 15 16 17 18 19 19 20 21 21 19 18 20 25 32 38 45 57 73 83 86 87 85 82 79 74 68 64 64 66 67 66 59 46 35 31 32 32 32 30 25 17 11 6 5 5 4 5 5 5 5 5 4 4 5 5 5 5 5 6 6 6 6 6 5 5 5 4 4 5 4 4 5 5
28 27 26 25 24 22 22 21 19 18 17 15 13 13 12 12 13 13 14 15 16 17 17 15 14 14 15 19 29 45 61 70 74 77 82 85 83 79 75 72 69 68 67 66 62 57 53 48 44 42 41 41 39 33 24 18 14 9 6 5 5 5 5 5 6 5 5 5 5 5 6 6 6 6 5 5 4 5 5 5 5 5 5 5 5
28 26 24 23 22 21 20 20 19 18 16 15 14 13 12 11 11 10 11 12 13 14 14 14 14 12 10 10 12 19 33 44 48 49 58 72 81 82 80 80 77 72 69 68 68 68 67 64 59 53 46 41 41 42 40 37 31 25 20 15 12 10 8 6 6 6 6 6 6 5 6 6 6 5 5 5 5 4 4 5 5 5 5 5 5
28 26 24 22 20 19 18 17 16 16 15 14 13 12 11 11 10 10 10 10 10 11 12 12 12 12 11 10 8 9 13 21 27 26 30 46 66 77 80 82 84 82 76 72 70 70 69 68 67 64 57 51 48 48 49 46 40 35 35 34 30 24 17 11 7 6 5 5 5 5 5 5 5 5 5 5 5 5 5 5 5 5 5 5 5
30 27 24 22 19 17 16 15 14 13 13 12 12 11 10 9 9 9 9 9 8 9 9 10 11 11 10 10 9 9 8 10 13 14 14 21 40 62 74 79 82 84 83 79 75 75 73 70 69 67 63 60 61 62 61 57 51 46 46 46 42 36 29 21 13 8 7 6 5 6 6 5 5 5 5 5 5 5 5 5 4 5 6 5 5
32 29 26 24 22 20 18 16 15 13 12 11 11 10 10 9 9 9 8 8 8 8 7 8 8 9 9 9 9 9 8 8 8 9 9 8 14 27 43 56 65 73 80 83 83 82 81 78 73 71 69 69 69 70 70 66 62 57 54 51 48 45 42 37 27 19 14 9 6 5 5 5 5 5 5 5 5 4 5 5 5 6 5 5 6
32 30 28 26 25 25 24 22 20 18 15 13 12 12 11 10 10 9 8 8 8 7 7 7 7 7 7 8 8 8 8 8 7 7 7 7 6 7 13 22 32 43 59 76 88 90 88 86 83 80 78 78 77 77 77 74 71 66 61 56 52 49 48 48 41 32 23 16 10 8 7 6 6 5 6 6 6 6 5 5 5 6 5 6 7
34 31 30 28 26 26 25 24 23 23 22 20 18 16 14 13 12 12 11 10 9 8 8 7 7 7 7 7 7 7 7 7 7 7 6 6 6 6 6 8 10 14 23 45 72 88 91 88 86 84 82 81 80 80 80 78 76 73 71 68 63 60 59 58 53 43 31 24 19 16 14 11 7 5 8 12 10 7 6 6 6 5 5 6 8
34 33 31 30 28 27 26 25 25 25 25 25 24 22 20 19 17 15 14 13 12 11 10 9 9 8 7 7 7 7 6 6 6 6 6 6 6 6 6 6 7 7 6 13 36 64 81 85 84 82 80 78 78 78 77 76 75 74 74 74 73 71 71 71 68 57 44 35 28 24 27 29 20 10 12 17 17 12 8 6 6 6 6 8 8
31 31 31 30 29 29 28 28 27 27 27 26 26 25 25 24 22 21 19 18 16 15 14 13 12 11 9 8 8 7 7 7 6 6 6 6 6 6 6 5 5 7 6 5 11 27 47 62 72 77 78 77 75 74 73 72 71 70 70 70 72 73 74 76 76 69 59 50 40 34 40 48 44 35 30 29 26 22 15 9 9 8 8 9 9
28 28 28 27 27 27 27 27 27 27 27 26 26 25 25 25 25 24 23 22 21 20 19 17 16 15 14 12 11 10 8 7 7 6 6 7 6 6 6 6 5 4 5 6 7 10 17 26 37 50 61 69 72 71 69 68 66 65 65 63 63 67 71 74 76 73 67 62 52 43 44 50 55 59 53 38 28 23 17 12 12 10 9 11 14
27 26 25 25 25 24 24 24 24 24 24 25 25 25 24 24 25 25 24 24 23 22 22 21 20 19 18 16 15 14 13 11 10 8 7 7 7 7 6 6 6 5 5 5 6 8 9 11 13 19 28 40 51 57 60 60 59 58 57 55 53 54 59 66 71 71 70 68 61 52 46 45 51 63 63 53 47 41 26 13 11 12 14 19 25
25 24 23 23 22 22 21 21 21 21 22 22 22 23 23 23 23 23 23 23 23 23 23 22 22 21 20 20 19 17 16 15 14 13 11 10 8 7 7 6 6 6 6 6 5 6 7 8 9 10 11 15 22 30 36 42 45 45 44 42 41 42 45 51 58 63 68 70 68 62 55 49 49 56 59 59 60 54 37 21 17 20 23 27 35
18 18 18 18 18 18 18 18 17 17 17 18 19 20 20 21 22 22 22 22 22 22 22 22 22 22 21 21 20 20 19 18 17 16 15 14 12 10 9 8 8 7 6 6 6 6 6 6 7 8 9 10 12 15 18 22 27 30 30 28 28 30 34 38 43 50 58 67 73 72 67 60 55 51 49 48 49 47 41 36 38 43 48 50 53
12 12 12 12 13 13 13 13 14 14 13 13 14 15 15 16 17 18 19 20 20 21 21 21 21 21 21 21 20 20 19 19 19 18 17 16 15 14 12 11 10 9 8 7 6 6 6 6 5 5 6 7 10 12 13 15 16 19 20 19 17 19 23 27 32 37 44 56 68 73 70 63 58 51 43 40 43 45 46 50 57 64 66 65 63
10 10 10 10 10 10 10 10 10 10 10 10 10 11 11 11 12 13 14 15 16 17 18 18 19 19 19 19 19 19 19 19 18 18 18 17 16 15 15 14 13 13 12 11 9 8 7 6 6 6 5 5 6 7 9 11 13 14 15 14 12 11 13 16 21 26 31 40 54 68 74 73 68 62 54 49 49 50 53 59 64 63 60 58 60
9 8 8 8 8 8 8 8 8 8 8 8 8 8 9 9 9 10 10 10 11 12 13 14 15 16 16 16 17 17 18 18 18 18 17 17 16 16 15 14 14 14 14 14 12 10 9 7 7 7 6 6 6 6 5 6 8 9 11 12 11 10 9 9 11 15 21 26 36 54 72 80 78 75 71 66 61 57 57 61 65 65 64 67 71
8 8 7 7 7 7 7 7 7 7 7 7 7 7 7 7 8 8 8 8 9 9 10 11 11 12 12 13 14 15 16 16 17 17 17 17 17 16 15 15 14 14 14 14 13 13 12 11 9 8 8 7 6 6 5 5 5 6 7 8 9 9 9 9 8 9 14 19 24 36 55 70 76 80 85 86 82 76 69 67 70 76 81 83 81
9 8 8 7 7 8 8 7 7 7 7 7 7 6 6 6 6 6 6 7 7 7 8 9 10 10 10 10 10 12 13 14 15 16 16 16 16 16 16 15 15 14 13 13 13 13 13 13 12 11 10 9 7 6 6 6 5 5 5 5 7 8 8 9 8 7 8 12 16 22 35 48 58 67 77 82 83 83 83 80 77 78 82 84 82
10 10 10 11 11 11 11 10 9 8 7 6 6 6 6 6 6 6 6 6 6 6 7 7 7 8 8 9 9 10 11 12 13 14 14 14 15 15 15 15 15 15 14 13 13 13 13 13 13 13 12 12 10 9 8 6 6 6 6 5 5 6 6 7 9 8 6 7 9 12 18 26 34 47 62 74 77 79 82 85 86 86 87 90 90
13 13 13 13 14 14 14 13 11 9 8 7 7 6 6 5 5 5 5 5 5 5 6 6 6 6 6 7 8 8 9 10 11 11 12 13 13 13 14 14 14 14 14 14 14 13 13 12 13 13 12 12 12 11 10 9 8 7 7 6 6 7 7 6 7 7 7 6 6 7 9 12 16 22 36 54 68 73 74 77 83 86 86 85 85
17 16 15 15 16 16 16 15 12 10 9 8 8 7 6 6 5 5 5 5 5 5 5 5 5 6 6 6 6 6 7 8 9 9 10 10 11 11 12 12 12 13 13 13 13 13 13 13 12 12 12 12 12 11 11 11 10 9 9 9 8 7 7 7 7 7 7 6 6 6 7 8 9 9 10 18 33 49 63 73 79 80 77 77 80
22 21 21 20 19 18 17 15 12 11 10 9 8 7 6 6 6 5 5 5 4 4 4 4 4 4 5 5 5 6 6 6 6 7 7 8 9 9 10 10 10 11 11 12 12 12 13 12 12 12 12 11 11 11 11 11 11 11 10 10 10 9 9 8 8 8 8 7 7 8 7 6 7 8 9 9 11 19 35 51 63 68 70 72 77
24 22 21 19 17 16 14 12 11 10 9 8 7 6 6 6 6 5 5 5 5 4 3 4 4 4 4 4 4 5 5 5 5 6 6 6 7 7 7 8 9 9 9 10 10 11 11 11 11 12 12 11 11 11 11 10 11 11 11 11 10 10 10 10 9 9 9 8 8 9 9 9 7 6 7 9 9 8 9 17 28 40 48 55 63
17 15 14 13 12 11 10 9 8 7 6 6 6 5 5 5 5 5 5 4 4 4 4 3 3 3 3 4 3 3 4 4 4 4 4 5 5 6 6 6 7 7 7 8 8 8 9 10 10 10 11 11 11 11 11 10 10 10 10 11 10 10 10 11 10 10 10 9 9 9 9 10 11 10 8 8 10 10 10 9 12 19 27 35 43
11 10 9 9 9 8 7 7 7 6 6 6 6 5 6 6 5 5 6 5 4 4 3 3 4 3 3 3 3 3 3 3 3 3 4 4 3 4 5 5 5 6 6 6 7 7 8 8 9 9 10 10 10 10 10 10 10 10 10 10 10 10 10 10 10 10 10 10 10 11 10 9 10 11 11 10 9 10 11 12 12 15 17 21 27
10 10 10 9 9 9 9 8 8 7 7 7 6 6 6 6 4 4 5 6 7 8 8 6 5 4 3 3 3 3 3 3 3 3 3 3 3 3 3 3 4 4 5 5 6 6 6 6 7 7 8 8 9 10 9 9 9 10 10 10 9 9 10 10 9 10 10 10 10 10 11 11 11 11 12 13 13 12 11 12 14 16 17 18 21
11 12 12 11 11 11 11 9 9 8 7 7 6 5 5 6 9 13 18 22 25 26 25 21 15 10 7 6 6 4 4 4 3 3 3 3 3 3 3 3 3 3 3 4 4 4 5 5 6 6 6 7 7 7 8 9 9 9 9 9 9 9 9 9 9 9 9 10 10 10 10 10 11 11 11 11 12 13 12 11 12 15 18 19 19
13 13 13 13 13 13 12 10 9 8 6 6 7 10 14 20 26 31 35 39 40 40 39 36 30 23 18 15 13 11 9 6 5 4 4 4 3 3 3 3 3 2 2 3 3 3 4 4 4 4 5 6 6 6 7 7 8 8 8 8 9 9 8 9 9 9 9 9 8 9 10 10 10 11 11 11 12 13 13 12 12 13 16 19 20
Wind_Speed
20 20 20 19 19 19 19 19 20 19 18 16 13 12 12 13 14 15 16 17 16 16 15 15 15 15 14 13 13 12 12 12 12 11 12 11 11 11 11 11 11 11 11 12 13 13 14 15 14 14 13 13 12 11 10 9 9 8 8 8 8 8 9 9 9 9 9 10 10 10 10 12 13 13 14 15 16 17 18 19 19 19 20 21 21
24 23 22 19 17 17 16 16 16 17 17 15 12 11 11 12 13 14 15 16 16 16 15 15 15 15 15 14 14 13 12 11 12 12 12 12 12 12 12 12 11 11 11 12 12 13 13 14 14 14 14 14 14 14 13 12 12 12 11 11 11 10 10 10 10 10 10 11 12 12 12 14 15 16 16 17 17 18 19 19 19 19 19 20 20
25 22 19 16 15 16 14 12 12 13 15 16 14 12 12 11 11 12 13 14 15 16 15 15 15 15 15 15 14 13 12 12 12 12 12 13 13 12 12 12 12 12 11 11 12 13 13 13 14 14 15 15 15 14 14 14 14 14 14 14 13 12 12 12 12 12 12 13 14 15 15 15 17 18 18 18 18 19 19 19 18 18 18 18 18
22 20 19 17 16 17 16 14 14 14 15 18 18 15 13 12 12 12 12 12 14 15 15 15 15 15 15 15 15 14 13 12 12 12 13 13 13 13 13 12 13 13 12 12 12 13 13 13 13 14 14 15 15 15 15 15 15 15 15 15 14 14 14 14 14 14 14 14 15 15 16 16 17 18 18 18 18 18 18 18 18 16 15 15 15
22 21 21 21 20 19 19 18 17 15 15 17 18 17 15 13 13 13 13 13 13 13 14 15 16 15 15 14 14 14 13 12 12 13 13 14 14 14 14 13 13 13 13 13 13 13 13 13 13 14 15 15 15 15 15 15 15 15 15 15 15 15 15 15 15 15 14 15 15 15 15 16 16 17 17 17 18 18 17 16 15 14 13 13 14
22 23 23 22 23 23 21 21 20 17 16 18 20 19 18 17 16 15 14 14 13 13 13 15 16 16 15 15 14 14 14 13 13 13 14 14 15 15 15 15 14 14 14 14 14 14 14 14 14 15 15 15 15 16 16 15 16 16 16 16 16 15 15 15 15 14 14 14 14 14 14 14 15 16 16 15 16 16 15 14 14 14 13 14 14
16 20 23 23 23 22 21 21 21 20 20 20 21 22 21 20 19 17 16 15 14 14 13 14 15 16 16 16 15 15 15 15 14 14 15 15 16 16 17 16 16 15 15 15 15 15 15 15 16 16 16 16 16 16 16 16 16 16 16 16 16 15 15 15 14 14 14 14 14 15 15 14 15 15 15 14 14 14 13 13 14 15 15 15 16
9 12 19 22 22 21 20 21 22 21 21 21 22 23 23 22 21 20 19 17 16 16 15 14 14 16 16 17 16 16 16 16 16 16 16 16 17 17 17 18 17 17 17 16 16 16 16 17 17 17 17 17 17 17 17 17 17 17 17 17 16 16 16 16 15 15 15 15 15 15 15 14 14 14 14 14 13 13 12 12 13 15 16 17 18
8 8 12 17 21 22 21 21 22 22 21 22 23 24 24 24 24 22 21 19 18 18 17 16 15 16 17 17 17 16 16 17 18 18 17 17 17 17 17 18 18 18 19 18 18 18 18 18 18 19 19 19 18 18 18 18 18 18 18 18 18 18 17 17 17 17 16 16 16 15 13 14 14 13 13 14 13 13 13 13 13 14 16 17 18
12 10 9 11 16 20 21 21 22 23 24 24 25 26 26 25 25 24 22 21 21 20 19 18 17 17 18 19 18 18 18 18 19 19 19 18 18 18 18 18 18 19 19 19 19 19 19 19 20 20 20 20 20 20 20 20 20 20 20 19 19 19 18 18 18 17 17 16 15 14 13 14 15 14 13 14 14 12 13 13 13 13 14 15 18
13 12 10 9 11 15 19 21 22 23 24 25 26 26 25 25 24 25 24 23 22 21 20 19 19 19 19 19 20 20 20 21 21 21 21 20 20 19 19 19 19 19 19 20 20 21 21 21 21 21 22 22 22 22 22 22 22 22 22 21 20 19 19 18 18 18 17 16 16 15 14 15 16 15 14 14 14 13 13 14 13 13 14 14 16
12 12 11 11 10 13 17 19 21 22 23 24 26 26 26 25 25 26 26 25 24 22 21 21 21 20 20 20 20 20 21 22 22 22 22 22 21 21 20 20 19 19 20 20 21 22 22 22 22 22 22 23 24 24 24 24 24 24 23 22 21 20 19 19 19 18 17 17 16 16 16 16 16 16 14 13 12 13 14 15 14 14 15 16 16
13 12 12 13 13 13 15 17 19 21 23 24 26 27 27 27 27 27 28 28 27 24 22 22 22 21 22 22 21 21 22 22 22 22 22 22 22 21 21 20 20 20 20 20 21 22 23 23 23 23 23 23 24 24 25 25 25 24 24 22 21 20 20 20 20 19 19 18 17 17 17 16 15 15 15 13 12 14 15 16 17 17 17 19 19
18 16 15 16 15 14 15 16 16 17 20 22 24 26 28 28 28 28 29 29 29 27 26 25 24 24 24 25 24 23 23 23 23 22 22 22 22 21 21 21 21 21 21 21 21 22 23 23 23 23 24 24 24 24 24 25 24 24 23 23 22 21 21 21 21 20 20 18 17 18 19 17 16 16 17 16 15 16 17 18 19 20 21 22 22
23 22 21 20 19 17 17 17 17 17 17 17 19 22 25 27 28 28 29 29 29 29 29 28 27 27 27 27 27 26 25 24 23 23 23 24 24 24 24 23 23 22 22 22 22 22 22 23 23 23 24 24 24 25 24 24 24 23 22 22 22 22 21 21 22 21 21 20 19 19 20 20 18 18 19 20 19 20 20 20 21 23 24 25 25
27 26 25 24 23 22 21 20 20 20 19 17 16 17 20 23 25 27 29 30 29 28 29 30 30 29 29 29 29 28 27 25 24 24 25 26 27 27 26 26 26 25 25 24 24 24 23 23 23 23 24 25 25 25 25 25 24 23 22 22 22 22 21 22 22 22 21 21 20 20 20 21 21 20 21 22 23 23 23 23 25 27 27 26 27
30 29 28 27 26 25 25 24 23 23 22 21 20 19 18 20 22 23 24 26 27 28 29 30 31 31 30 29 30 30 29 27 27 27 28 29 30 29 29 28 27 26 26 26 26 25 25 24 24 24 24 25 26 26 27 26 25 24 23 22 22 21 21 23 24 24 23 23 22 21 21 22 23 23 24 24 25 26 26 25 28 30 29 27 26
31 30 30 29 29 28 27 27 26 25 24 24 24 23 22 22 22 22 22 22 24 26 28 31 32 31 30 29 30 30 31 31 31 31 31 31 31 31 30 29 27 26 26 26 27 26 26 26 25 25 25 26 27 27 27 27 25 24 24 23 22 21 21 24 25 25 25 24 23 23 23 24 24 25 25 26 28 29 28 27 29 30 29 26 26
33 33 32 32 31 31 30 29 29 28 27 26 26 26 26 25 24 23 23 22 23 24 26 29 31 30 29 29 29 30 32 33 33 33 32 32 32 32 31 29 28 28 27 27 27 27 27 26 26 26 26 27 28 28 28 27 26 24 24 23 22 22 24 27 27 25 25 25 24 24 24 24 25 26 26 28 29 30 29 29 29 29 27 25 25
35 35 35 34 34 33 33 33 32 31 30 29 29 28 28 28 26 25 24 25 26 27 27 28 28 27 27 27 29 30 32 32 33 32 33 33 32 32 32 31 30 30 29 28 27 27 27 28 28 28 28 29 29 29 29 28 27 26 26 24 23 23 27 29 29 28 27 26 25 25 25 26 26 27 27 29 30 31 30 29 29 28 26 24 24
38 38 37 37 37 36 36 35 35 34 33 32 32 31 31 30 30 29 28 28 29 30 30 29 27 24 23 24 27 30 32 33 32 32 32 33 33 33 33 32 32 32 31 29 28 28 29 29 30 30 31 31 31 31 31 30 30 29 28 27 27 28 30 31 30 30 29 28 28 28 28 28 29 29 30 30 31 32 31 30 29 28 26 25 25
40 40 39 39 39 38 37 37 37 37 36 35 35 34 34 34 33 33 32 32 32 31 31 30 28 25 23 24 25 28 30 32 33 32 32 32 33 33 34 34 35 35 33 31 30 31 31 32 32 32 33 32 32 32 32 33 33 32 31 31 32 33 33 33 33 32 32 31 31 30 30 31 31 32 32 32 32 33 32 31 31 29 28 27 27
42 42 41 41 41 41 40 40 40 39 38 37 37 36 36 36 36 35 34 34 33 33 32 31 29 28 26 26 26 26 27 29 31 31 32 32 32 33 34 35 37 36 34 33 33 34 33 33 33 33 33 33 33 34 34 34 34 34 33 34 34 35 35 35 34 34 34 33 33 32 32 33 33 33 34 34 34 34 33 33 32 31 30 29 29
43 43 42 42 43 43 42 42 42 42 41 41 39 39 38 38 37 36 35 34 34 33 33 32 31 30 29 29 28 28 28 29 29 30 30 31 32 33 34 34 35 35 35 35 36 36 36 35 34 34 34 34 35 35 34 34 35 35 35 35 36 36 37 36 36 36 36 35 34 34 34 35 35 34 35 35 35 35 35 34 33 32 31 30 30
44 43 43 43 43 43 44 43 43 43 43 43 42 41 40 39 38 37 36 35 35 34 34 34 33 32 31 31 31 31 31 32 31 31 31 31 32 33 34 35 34 34 33 34 36 38 38 38 37 36 36 36 36 36 35 35 36 36 36 37 37 38 38 38 38 39 38 37 36 36 36 37 37 37 37 37 37 36 36 36 34 33 31 31 30
45 44 43 43 43 43 44 44 44 44 44 44 44 43 42 41 40 39 38 37 37 36 36 35 35 34 34 34 34 33 33 34 34 33 33 33 33 34 35 35 36 35 34 34 35 36 38 39 40 39 38 37 37 37 37 38 38 38 38 38 39 39 40 40 41 41 40 39 39 39 38 39 40 39 39 39 38 38 38 37 35 34 33 31 30
45 45 44 44 43 43 43 43 44 44 44 44 44 44 44 43 43 42 40 39 39 38 38 37 37 36 36 36 36 36 35 35 35 36 36 36 36 36 35 35 36 36 36 35 35 35 36 38 39 40 39 38 37 37 37 38 38 39 39 40 40 40 41 42 42 42 41 41 41 41 41 41 41 41 41 41 40 40 39 38 36 34 34 33 30
46 46 46 45 44 44 43 43 44 44 44 44 44 44 44 44 44 44 43 42 41 40 39 39 38 38 37 37 37 38 37 37 37 38 38 39 39 39 39 38 37 37 37 37 36 36 37 37 38 38 38 38 38 37 37 37 38 39 40 40 40 40 41 42 43 43 43 43 44 43 43 43 42 42 42 42 41 41 41 40 37 35 35 34 30
48 47 47 47 46 46 45 45 44 44 44 45 45 44 45 45 45 45 45 44 43 42 41 41 41 40 39 38 38 39 39 39 39 39 40 40 41 41 41 41 40 38 38 37 37 36 37 38 38 37 37 37 38 37 37 37 37 38 39 40 41 41 42 42 42 42 43 44 45 45 45 45 44 43 42 42 41 42 42 41 39 37 36 33 29
50 50 50 50 49 49 49 48 47 47 46 46 46 46 46 46 45 46 46 46 46 45 44 43 43 42 41 41 40 40 40 40 41 41 41 41 41 41 42 42 42 41 40 39 38 37 37 37 38 38 38 38 37 37 37 37 37 37 38 39 41 42 43 43 43 42 43 44 44 44 45 46 45 43 42 41 41 42 43 42 41 39 37 33 29
52 52 52 52 52 52 52 51 51 50 49 49 48 48 48 48 48 47 47 47 48 47 47 45 45 45 44 44 44 43 42 41 42 43 42 42 42 43 43 44 44 43 43 42 40 40 39 39 39 39 40 39 38 38 38 38 38 37 38 38 38 40 42 43 44 44 43 43 43 43 43 43 43 42 42 42 42 42 42 43 42 40 37 33 29
54 54 54 54 54 54 54 54 53 53 53 52 52 52 51 51 51 51 50 49 49 49 49 49 48 47 47 46 46 46 45 45 44 44 44 43 43 44 45 45 45 45 45 44 43 42 43 42 41 41 41 41 40 40 40 39 38 38 38 38 38 39 40 41 43 44 44 43 43 42 40 40 40 41 42 43 42 41 41 42 42 40 37 33 29
55 55 55 55 55 55 55 55 55 55 55 55 55 55 54 54 54 54 54 53 52 52 52 52 51 50 50 49 49 48 48 49 48 47 47 46 45 45 46 46 46 46 46 45 44 43 44 45 45 44 44 44 43 42 41 40 39 39 39 39 39 39 39 40 41 43 43 43 42 40 39 40 41 41 40 39 38 38 38 39 40 39 37 34 31
55 55 55 55 56 56 56 56 56 56 57 57 57 57 57 56 56 56 56 56 56 56 55 55 55 54 53 53 52 51 51 51 51 51 51 50 49 48 47 47 48 48 47 47 46 45 46 46 47 47 47 47 46 45 44 43 42 40 40 40 39 39 39 40 41 41 41 42 42 41 39 41 42 41 39 37 36 36 35 36 37 38 37 35 34
55 55 55 55 56 56 56 56 56 56 57 57 58 58 58 58 58 58 58 58 59 59 58 58 58 57 57 56 56 56 55 54 54 54 54 54 54 53 51 49 49 50 50 49 48 47 47 48 48 48 48 48 47 47 46 46 44 43 41 41 40 40 40 41 42 41 41 41 42 42 41 41 41 41 40 38 36 34 34 35 36 38 38 37 37
54 54 55 55 55 56 56 56 56 57 57 57 58 58 59 59 60 60 60 60 60 60 60 60 60 60 60 59 59 59 59 58 58 57 58 58 58 57 56 54 53 52 52 52 52 51 50 49 49 49 49 49 49 49 48 48 47 46 45 43 42 42 42 42 43 43 42 42 42 42 41 40 39 39 40 39 37 35 35 36 37 38 39 39 39
53 54 54 55 55 56 56 56 57 57 57 57 58 58 58 59 59 60 60 61 61 61 62 62 62 62 62 62 62 62 62 61 61 61 61 61 61 61 60 59 58 57 56 55 55 55 53 52 51 51 50 51 51 51 51 50 49 48 48 46 45 44 44 44 45 45 44 44 43 42 41 39 37 37 39 40 39 38 37 38 39 39 40 40 41
54 54 55 55 55 56 56 57 57 57 58 58 59 59 59 59 59 60 60 60 61 62 62 62 63 63 63 64 65 65 65 64 64 63 63 64 64 64 63 63 62 61 60 59 59 59 58 56 55 54 53 52 52 53 53 53 52 51 50 50 49 48 46 46 46 46 47 47 46 43 40 38 37 38 40 40 39 39 39 40 40 41 42 42 42
53 53 54 54 55 56 56 57 57 58 58 59 60 60 61 61 61 61 61 61 62 62 62 63 63 63 64 65 66 67 67 67 66 66 66 66 66 66 66 66 65 65 64 64 64 63 62 61 59 58 57 56 55 54 54 55 54 54 53 52 52 50 49 48 48 47 48 49 48 44 40 38 40 42 43 42 40 40 42 42 43 43 44 44 45
51 52 52 53 54 54 55 56 57 58 59 59 60 61 62 63 63 64 64 64 64 64 64 65 65 64 65 66 67 68 69 69 68 68 68 68 68 68 68 68 68 68 67 67 67 67 66 65 64 63 61 60 59 58 57 57 56 56 55 55 54 52 51 50 49 49 48 49 49 46 43 41 43 46 47 46 44 43 44 45 46 46 46 47 48
50 50 51 51 52 53 54 55 56 57 58 59 60 62 63 64 65 66 66 67 67 67 67 67 67 67 68 68 69 70 70 70 70 70 70 70 70 70 70 70 70 70 70 69 69 69 69 69 68 67 66 65 64 62 61 60 59 59 58 57 56 55 53 52 51 50 50 50 50 49 46 45 45 46 48 49 48 47 47 48 49 50 50 50 51
49 49 50 51 52 53 54 56 57 58 59 60 61 62 63 65 66 67 69 69 70 70 70 70 70 70 70 71 72 72 72 72 72 72 72 72 72 73 73 73 73 72 71 71 71 71 71 71 71 71 70 69 68 67 66 64 63 62 61 60 59 58 57 55 54 53 52 52 51 50 50 49 48 47 47 48 49 50 50 50 51 51 51 51 51
51 52 53 54 55 56 57 58 59 59 60 61 62 63 64 66 67 68 70 72 73 73 73 73 72 72 72 73 74 75 75 74 74 74 74 74 74 75 75 76 75 75 74 73 73 73 72 72 72 72 72 72 71 71 70 68 67 65 64 63 63 62 61 59 58 56 56 55 53 52 53 53 52 51 49 49 49 50 51 51 51 51 50 49 49
54 55 57 58 59 60 60 61 61 62 62 63 64 65 66 67 69 70 72 73 74 75 76 76 76 76 75 75 76 77 77 77 76 77 77 77 77 77 77 78 78 78 78 76 75 74 74 74 74 74 74 73 73 73 73 72 70 69 68 67 66 65 65 63 62 60 59 58 56 54 54 55 55 54 53 52 51 52 52 51 51 51 50 49 49
55 57 58 60 61 61 62 63 64 65 66 66 67 68 69 69 70 72 73 75 76 77 78 78 78 79 79 78 79 79 79 79 79 79 79 79 79 79 79 80 80 81 81 80 79 78 77 76 75 75 74 75 75 75 74 74 73 72 71 70 70 69 68 67 66 64 63 62 60 58 57 57 57 57 55 54 54 54 53 52 52 52 51 49 48
55 56 57 58 60 61 62 64 65 67 68 69 69 69 69 70 71 72 73 75 76 78 78 79 80 80 81 81 81 81 82 82 82 82 82 82 82 82 82 82 82 82 82 82 82 82 81 79 77 76 75 76 76 76 76 75 75 74 73 73 72 72 71 70 70 68 66 65 64 62 61 60 59 59 58 57 57 57 56 54 53 52 51 50 50
54 55 56 57 58 60 61 63 64 65 66 67 67 67 67 68 68 69 70 72 74 75 76 77 78 80 81 82 82 83 83 83 84 85 85 85 85 85 85 85 84 84 84 84 84 84 83 82 80 79 78 78 77 77 77 76 76 76 75 75 74 74 73 73 72 71 70 68 67 65 64 63 62 61 60 60 59 59 58 57 55 54 52 51 51
51 53 54 55 56 58 59 60 61 62 62 62 63 63 64 64 65 65 66 68 70 71 72 73 74 76 78 79 80 81 81 82 83 84 85 86 87 87 87 87 87 87 87 86 86 85 84 83 82 82 81 80 80 79 78 78 77 77 77 76 76 75 75 75 74 73 72 71 70 68 67 65 64 63 62 62 61 61 61 60 58 57 55 54 53
49 51 52 53 54 55 56 58 59 60 60 60 61 61 61 62 62 62 63 64 65 66 67 68 69 70 72 73 74 75 77 78 79 80 82 84 85 86 87 88 88 89 89 89 88 87 86 85 84 84 83 83 82 81 80 79 79 78 78 78 78 77 77 76 75 74 74 74 72 71 69 68 66 64 64 63 62 62 62 62 61 59 58 57 56
48 49 50 51 52 53 54 56 57 58 58 58 58 58 58 58 58 57 58 58 59 60 61 62 63 63 64 65 66 68 69 71 73 74 76 79 81 83 85 86 87 88 88 89 89 89 88 87 86 86 85 85 84 83 82 81 80 80 79 79 79 78 78 77 76 76 75 75 74 73 72 70 68 67 65 64 63 63 63 63 63 62 61 60 59
47 48 48 49 50 51 52 54 56 56 55 54 54 53 53 53 52 52 53 54 55 56 57 58 58 58 57 57 58 60 61 63 65 67 69 72 75 77 80 82 84 85 86 87 88 88 89 88 88 87 87 86 86 85 84 83 82 81 80 80 80 79 79 78 78 77 76 76 75 74 73 72 70 69 67 66 65 64 64 63 64 64 63 63 62
Wind_Direction
213 214 211 206 205 206 207 209 207 206 209 212 214 215 216 215 212 211 212 212 212 213 210 206 202 202 204 205 204 203 200 199 200 202 204 202 194 186 184 186 187 189 192 191 189 189 190 195 199 201 203 204 206 209 211 211 211 215 222 225 226 231 235 240 247 253 257 263 270 276 279 282 286 289 292 294 296 299 302 306 308 310 312 316 319
218 218 214 207 209 215 214 214 215 213 214 215 216 219 222 221 219 218 219 219 218 218 218 215 210 206 207 208 209 210 209 207 207 208 210 210 207 199 191 191 193 196 199 197 194 195 195 196 200 202 205 207 208 210 215 218 218 220 226 231 234 238 241 245 251 257 261 266 271 276 279 282 286 290 293 295 298 302 304 307 311 314 315 317 319
222 225 222 211 216 225 222 216 217 219 222 220 217 220 225 226 226 226 228 230 229 227 227 226 222 216 213 213 213 214 215 215 214 214 215 215 216 212 201 198 200 201 202 202 201 203 203 201 202 204 207 209 210 211 214 218 221 224 229 235 240 244 246 249 252 256 260 265 270 276 279 282 285 290 294 296 298 301 303 308 314 318 319 318 321
226 228 228 221 221 226 226 219 211 211 219 220 216 215 219 223 224 224 226 233 237 237 236 235 233 229 224 221 219 219 219 221 221 219 218 218 219 219 213 206 206 206 205 206 209 211 210 207 207 209 211 212 214 215 216 219 223 226 230 234 239 243 246 249 252 256 260 264 268 273 278 281 283 287 290 293 296 299 302 307 314 318 319 319 323
226 224 223 220 217 217 221 222 216 210 215 221 219 215 215 222 226 225 221 223 231 239 243 242 241 240 238 234 229 227 225 225 225 222 220 219 218 219 218 214 212 212 210 210 214 217 218 216 214 214 215 216 218 218 219 221 224 228 232 235 238 241 244 248 251 254 258 262 264 267 272 277 282 285 288 291 294 298 302 307 312 315 317 319 322
225 222 222 222 217 215 218 222 221 217 216 219 219 214 211 216 223 227 226 223 223 229 239 246 247 246 246 245 241 237 233 230 228 225 222 220 218 218 218 217 214 216 217 216 217 219 221 222 223 223 222 222 223 223 223 224 226 230 233 236 239 241 245 249 252 254 257 262 266 269 272 276 281 286 290 292 294 298 304 308 310 310 313 316 320
230 225 225 225 220 220 221 219 218 220 220 222 221 215 211 213 217 223 227 228 227 225 228 238 246 248 248 248 246 242 239 236 233 229 225 222 220 217 217 217 215 216 219 220 221 222 224 225 227 228 229 229 230 231 231 230 231 233 235 238 241 244 247 252 255 258 261 265 269 273 276 279 281 284 288 291 294 298 303 306 306 307 311 314 316
241 233 230 228 224 224 223 217 215 218 221 226 227 222 217 215 216 220 224 227 229 229 226 227 236 243 245 245 246 245 243 240 236 233 230 227 225 222 219 217 216 215 217 220 221 224 226 228 229 230 231 231 233 235 237 238 238 239 241 244 247 250 252 256 259 261 264 266 269 272 276 277 278 280 285 290 294 296 298 299 298 301 306 310 311
239 243 238 233 229 226 224 219 218 220 221 226 229 226 221 219 219 220 223 225 228 230 229 226 229 237 239 239 240 242 242 241 239 237 234 232 230 228 226 223 220 218 217 218 219 221 224 227 229 231 233 233 233 235 238 240 242 243 244 246 249 251 254 257 259 261 262 264 267 270 273 273 274 277 283 287 289 291 292 294 293 295 300 304 306
231 241 247 245 235 227 223 221 221 221 220 222 226 226 225 224 223 223 223 225 226 228 229 227 225 231 237 237 234 234 236 239 239 238 236 234 232 231 230 229 227 225 223 222 222 222 223 225 227 230 232 234 235 236 238 240 243 244 245 245 247 249 251 254 256 258 260 262 265 267 267 269 272 276 279 281 283 285 285 287 289 291 294 298 301
228 235 243 250 240 226 219 219 219 220 219 220 225 229 230 229 228 226 225 226 227 228 230 230 226 227 233 237 237 234 233 235 237 238 238 236 234 232 232 231 231 231 229 228 228 227 227 227 228 229 231 233 234 236 238 240 243 245 246 246 247 248 249 251 254 256 257 259 262 264 265 268 272 275 273 273 277 278 277 279 282 286 290 291 293
228 229 233 239 236 224 218 218 218 219 221 224 228 232 233 232 230 228 226 226 227 229 230 231 231 230 231 234 238 238 236 235 236 239 241 241 240 238 235 234 233 233 232 232 232 232 231 231 231 231 232 234 235 236 238 240 243 245 247 248 248 249 250 251 253 254 256 257 260 263 264 265 268 271 269 267 269 270 270 273 277 279 282 284 285
234 230 230 233 234 229 224 221 220 220 224 228 232 233 233 232 231 229 227 226 226 229 232 231 231 233 235 235 235 237 238 237 236 237 240 243 245 246 245 242 239 238 237 237 237 237 236 235 235 235 235 237 238 239 240 242 244 247 249 250 250 250 251 252 253 254 254 255 256 259 260 259 260 265 268 264 261 265 269 272 275 277 278 279 280
242 239 236 237 241 239 234 231 229 226 226 229 233 234 233 230 228 226 226 226 226 228 233 233 230 230 235 238 237 235 234 236 237 238 238 239 240 242 244 245 244 242 241 240 240 241 242 241 240 240 240 241 243 244 244 245 245 247 249 251 252 250 249 251 252 253 253 252 251 252 256 257 256 260 266 266 263 264 268 272 276 278 277 278 279
246 246 245 245 249 251 249 248 247 242 237 235 234 232 231 229 226 224 224 225 226 228 233 235 233 230 231 236 240 240 238 236 236 237 239 239 238 237 236 236 237 238 239 239 238 240 242 243 244 244 244 245 246 248 249 249 248 248 247 248 250 250 250 250 251 252 252 251 249 249 253 258 259 260 264 268 269 269 269 271 274 275 274 275 278
249 250 249 249 251 253 255 257 257 253 250 248 245 239 234 231 228 228 229 228 228 229 233 235 236 235 234 235 239 243 244 242 239 237 237 238 239 237 235 234 233 233 234 234 235 236 238 240 242 243 245 246 248 249 250 251 252 252 250 249 249 249 251 253 254 253 253 253 252 251 254 260 264 266 268 270 273 273 273 274 275 274 273 274 276
251 251 251 252 253 254 255 256 258 259 257 255 252 249 245 239 234 235 237 237 235 235 237 238 238 238 238 238 240 243 245 245 243 241 240 239 239 239 238 238 237 237 237 237 237 237 237 238 239 240 241 243 245 247 248 250 251 253 254 254 254 253 253 255 257 257 256 257 258 258 259 262 266 269 271 273 274 275 275 276 275 276 278 280 282
252 252 252 253 254 255 256 257 257 258 259 259 258 254 251 247 243 243 246 245 242 240 240 240 240 239 239 242 244 245 244 244 244 244 244 244 245 245 244 243 243 242 242 242 243 242 242 242 242 243 244 244 245 246 247 248 249 251 254 257 260 263 262 261 260 259 260 262 263 265 266 267 269 272 273 275 275 276 277 277 277 279 284 288 289
250 251 252 253 254 254 255 256 256 256 256 258 259 259 257 255 253 254 254 253 250 247 245 244 243 240 240 243 247 247 246 246 246 247 247 248 250 251 252 250 249 247 245 244 244 245 245 245 246 246 247 248 249 250 250 250 249 250 253 255 259 262 264 264 264 265 266 267 267 267 268 269 271 272 273 274 275 277 279 280 280 283 287 290 291
248 250 251 252 253 254 254 254 255 255 256 255 257 259 260 259 259 258 258 258 257 255 254 252 248 243 242 245 248 247 247 248 250 250 250 251 252 254 255 254 253 253 251 249 247 247 247 248 248 248 248 249 251 253 254 255 254 253 253 254 254 254 256 261 266 269 270 271 272 272 272 272 272 272 272 273 275 277 280 281 283 285 288 290 290
249 250 251 252 253 254 254 254 254 254 255 255 256 257 258 258 258 256 255 256 256 257 257 257 255 252 251 252 251 248 247 248 250 251 253 254 254 254 254 254 253 253 254 253 251 250 249 248 248 249 249 250 251 253 255 257 257 257 257 258 256 254 255 258 262 265 267 268 269 270 271 271 272 273 273 274 276 277 280 282 285 287 289 289 288
249 250 251 253 254 255 255 256 257 257 256 256 255 255 255 256 256 255 254 254 256 257 258 259 260 260 260 260 258 255 251 249 250 251 253 254 255 255 254 253 252 252 253 253 252 251 250 250 250 250 251 252 252 253 254 255 256 257 258 258 258 258 259 260 261 263 264 263 263 264 265 267 268 270 271 273 274 276 278 281 284 286 287 288 288
247 248 250 252 254 255 256 258 260 261 260 259 258 257 256 256 255 255 255 255 256 257 258 259 260 261 261 262 262 262 258 254 252 252 252 253 254 254 254 254 253 253 253 252 251 251 251 252 252 253 255 255 255 255 256 257 258 258 258 258 259 260 261 261 261 261 261 261 262 262 262 263 265 267 269 271 272 274 276 279 281 283 286 287 288
247 247 247 249 251 254 255 257 259 261 262 262 262 261 261 260 259 259 258 258 258 259 260 260 260 260 259 259 258 258 259 259 258 257 257 256 255 254 254 254 254 253 252 251 251 252 253 253 253 253 254 255 256 257 258 259 260 261 261 261 261 262 262 263 262 262 262 262 262 262 263 264 264 265 267 269 271 274 275 277 279 281 284 286 287
248 248 247 247 249 251 253 255 257 259 261 262 263 263 263 262 262 262 262 261 260 260 261 261 260 259 258 256 255 254 255 257 260 261 262 261 258 256 255 256 256 255 253 251 250 251 253 254 254 253 253 253 255 257 259 260 261 262 263 263 263 264 264 264 264 264 264 263 263 263 264 265 265 265 266 268 270 272 274 276 278 281 282 283 285
249 249 249 248 248 249 250 252 254 255 257 259 261 262 263 263 262 262 261 261 260 260 260 260 260 259 258 257 256 254 253 254 258 260 261 261 261 259 257 257 258 258 256 254 253 253 253 254 255 255 255 256 257 258 260 261 262 263 264 265 265 265 265 264 264 265 265 265 265 265 264 265 266 268 269 270 271 273 274 276 279 281 282 282 282
248 249 250 250 250 250 249 250 251 252 254 255 257 260 261 262 262 262 261 260 259 259 259 259 259 258 258 257 257 256 255 254 255 257 258 258 258 258 257 258 259 259 258 257 256 255 255 255 256 256 256 257 259 260 261 262 262 263 264 265 266 266 265 265 264 264 265 265 265 265 265 266 267 268 270 272 273 275 276 278 280 282 282 282 281
248 249 250 251 252 252 251 251 251 251 252 252 253 255 257 259 261 262 262 261 259 258 258 258 257 256 256 256 256 257 256 255 255 255 255 255 255 256 257 257 258 259 260 259 258 256 256 256 256 256 255 256 258 259 260 260 260 261 262 263 264 265 266 267 267 266 265 264 264 265 266 266 267 268 270 272 274 276 278 280 281 281 280 280 280
250 251 252 253 253 253 253 253 253 253 253 252 253 253 254 255 257 259 261 261 260 260 259 259 258 257 255 254 254 254 255 255 254 254 253 254 254 255 256 256 257 257 258 259 259 258 256 256 256 256 255 255 256 257 258 259 259 260 261 262 264 265 267 268 269 269 267 266 266 266 267 267 268 268 269 272 274 276 277 279 279 278 277 277 275
252 253 253 254 254 255 255 255 255 255 255 254 254 254 254 254 254 255 257 259 260 260 259 259 259 259 258 256 255 253 252 253 253 253 253 253 254 255 255 255 256 256 256 256 256 256 256 255 255 256 256 256 256 257 257 258 259 259 261 263 265 266 267 269 270 270 270 269 269 269 270 270 270 270 271 272 273 273 275 276 276 276 276 274 271
254 254 255 255 255 256 256 256 256 256 256 255 255 256 256 255 255 254 254 256 258 259 259 258 258 259 259 259 258 257 255 253 253 254 254 253 253 254 254 255 255 255 255 254 253 253 254 254 254 254 255 255 256 257 257 257 258 259 261 263 266 267 268 268 269 270 270 271 271 271 272 273 273 273 272 271 271 271 272 273 274 275 275 272 268
254 255 255 256 256 256 256 256 256 256 256 256 256 256 256 257 257 257 256 255 256 257 258 258 258 258 259 259 259 260 259 257 256 255 255 254 253 253 254 255 255 255 254 254 252 251 252 252 252 253 254 254 255 256 257 257 258 259 260 263 265 267 268 268 267 268 269 271 273 273 274 275 276 275 272 271 272 272 272 272 273 273 272 268 265
255 255 255 255 255 255 255 255 255 255 256 256 256 256 256 256 257 258 258 257 256 256 257 257 258 258 258 258 258 259 260 260 259 258 257 255 254 253 254 255 255 255 255 255 253 251 251 251 251 251 252 253 254 255 256 257 257 257 259 261 263 265 267 268 268 268 269 270 272 274 274 275 275 274 272 272 273 271 269 270 270 270 268 267 264
254 255 255 255 255 255 255 255 255 254 255 255 255 255 255 255 255 256 257 258 258 257 257 257 257 257 257 257 257 257 257 259 260 260 260 258 257 255 254 255 256 257 257 256 255 254 252 251 251 251 251 252 253 254 255 256 256 256 257 259 261 262 264 266 267 268 269 270 270 270 271 272 273 272 271 271 270 268 265 264 264 264 264 263 263
254 254 255 255 255 256 256 256 256 255 255 255 255 255 255 255 255 255 255 256 257 258 258 257 257 257 257 257 257 257 256 256 257 258 259 260 260 259 257 256 256 257 258 257 256 255 254 254 253 252 252 253 253 253 254 255 256 256 256 257 258 260 262 263 265 267 269 269 269 268 268 270 271 270 268 267 265 262 259 259 259 260 262 263 265
254 254 255 255 255 256 256 257 257 257 257 256 256 256 256 256 256 256 256 256 256 257 258 258 258 258 257 257 256 256 256 256 256 256 257 258 260 260 260 259 257 256 257 257 257 256 256 255 254 254 254 254 254 254 254 255 256 256 256 256 257 258 259 261 262 263 265 266 267 267 267 267 266 266 265 264 261 258 257 259 260 263 265 267 268
255 256 256 257 257 257 257 258 258 258 259 259 258 258 258 257 257 257 257 257 257 257 257 257 258 259 259 258 257 256 256 256 255 255 255 256 257 258 259 260 260 259 258 258 258 258 257 256 255 254 254 254 254 255 255 256 256 257 257 257 256 256 256 258 260 261 262 262 263 264 265 264 262 261 262 262 262 261 261 262 264 265 266 266 267
256 257 257 258 259 259 259 259 259 259 260 260 260 259 259 258 258 257 257 257 257 257 257 257 257 258 259 260 260 259 258 256 256 255 255 255 255 256 256 257 258 259 259 259 258 258 258 258 257 257 256 255 254 255 256 256 257 257 257 257 257 256 255 256 257 259 260 260 260 262 264 266 264 261 260 260 261 261 261 261 263 264 265 265 267
256 257 257 258 259 260 260 260 261 261 261 261 261 261 260 260 259 258 258 257 256 256 256 256 256 256 257 257 259 260 260 259 258 257 256 256 256 256 255 255 255 256 257 257 258 259 259 259 258 258 258 257 256 256 255 256 256 256 257 257 258 258 257 256 256 257 259 260 261 260 262 263 263 261 259 257 257 257 257 257 258 260 263 265 269
255 256 258 259 260 261 261 262 262 263 263 263 263 263 262 262 261 261 260 259 258 256 256 255 255 255 255 255 256 257 258 259 260 259 258 257 257 256 256 256 255 255 255 255 256 257 258 259 259 258 258 258 257 257 256 256 256 256 257 257 258 258 258 257 257 256 257 258 259 259 258 258 259 260 259 258 256 255 254 254 255 257 259 263 267
256 257 258 260 261 262 263 264 264 265 265 266 266 266 265 265 264 264 263 262 261 259 258 257 256 255 254 254 254 255 255 257 258 259 259 259 259 258 257 257 256 256 255 255 255 255 256 257 257 257 258 258 257 257 257 257 257 257 257 258 258 258 258 258 258 257 257 256 257 258 257 257 258 260 261 262 261 258 256 255 255 256 259 262 265
259 260 261 263 264 265 265 266 266 267 267 268 268 268 268 267 267 266 265 264 263 262 261 260 259 258 257 256 255 255 255 255 256 256 257 258 259 259 259 258 258 257 256 255 255 255 254 255 255 255 256 257 257 257 257 257 258 258 258 259 259 259 259 258 258 258 257 257 257 257 257 257 257 257 259 262 263 262 260 259 258 258 260 263 265
263 264 265 267 268 269 269 269 269 269 269 270 270 271 271 270 270 269 268 266 265 264 263 262 262 261 260 259 258 257 256 256 256 255 255 256 256 257 258 258 259 258 257 256 255 255 254 254 254 254 254 255 256 256 257 257 257 257 258 259 259 260 260 259 259 258 258 258 257 257 258 258 258 257 257 259 262 264 265 266 265 263 263 265 266
266 267 268 269 271 271 271 271 270 271 271 272 272 273 272 272 271 270 270 269 267 266 265 264 263 262 262 261 261 260 259 258 257 256 256 255 255 255 256 257 257 258 258 257 256 255 254 254 254 254 254 254 254 255 255 256 256 256 257 257 258 259 259 260 259 259 259 259 259 258 258 259 260 259 259 259 260 261 263 266 267 267 266 267 268
266 267 268 269 270 270 270 270 271 271 272 272 273 273 273 272 271 271 270 270 269 268 267 266 265 264 263 262 262 261 261 260 259 258 257 256 255 255 255 255 255 256 256 256 256 255 254 254 253 253 254 254 254 254 254 254 254 255 255 255 256 257 258 259 259 259 259 260 260 259 259 259 260 261 261 261 261 260 260 262 264 265 266 267 268
266 267 268 269 269 270 271 271 272 272 272 273 273 272 271 271 270 270 270 269 269 268 267 267 266 265 264 263 263 262 261 261 260 259 259 258 257 256 255 255 254 254 255 255 255 255 254 254 253 252 252 252 253 253 253 253 253 253 253 254 254 255 256 257 258 258 259 259 259 259 260 260 260 261 261 262 262 262 262 261 261 262 263 265 266
267 269 270 271 271 272 272 273 273 273 273 273 272 272 271 270 269 269 269 269 269 268 267 267 266 265 265 264 263 262 261 261 260 260 259 259 258 257 256 255 254 254 253 253 253 253 254 254 253 252 252 251 251 251 252 252 252 252 252 253 253 253 254 255 256 257 257 258 258 259 259 259 260 261 262 262 263 263 264 264 263 262 262 262 263
270 271 272 272 273 273 273 273 274 273 273 273 273 273 272 271 270 269 269 269 269 268 268 267 266 265 264 264 263 262 261 260 259 259 258 258 257 256 256 255 254 254 253 253 252 252 253 253 253 252 252 251 250 250 250 250 251 251 251 252 252 252 252 253 254 255 256 257 257 257 258 258 258 259 260 261 263 264 264 265 264 264 264 263 263
271 272 272 273 273 274 274 275 275 275 275 275 275 274 273 272 271 270 270 269 269 269 268 267 266 265 264 264 263 262 261 260 259 257 256 256 255 255 254 254 253 253 253 252 252 252 252 251 251 251 251 251 250 250 249 249 249 249 250 250 251 251 252 252 252 253 254 255 256 257 257 257 257 258 258 259 260 262 263 264 264 264 264 264 264
271 272 273 274 275 275 276 276 277 277 277 276 275 274 272 271 271 270 269 268 268 268 268 268 267 266 265 264 263 262 261 260 259 257 256 255 254 253 252 252 252 251 251 251 251 251 250 250 249 249 249 249 249 249 248 248 248 248 248 249 249 250 251 251 251 252 252 253 254 255 256 256 257 257 257 257 258 259 260 262 263 264 264 265 265
272 273 274 275 276 277 278 278 278 279 278 276 274 272 271 270 269 268 267 267 267 267 267 268 268 268 267 266 264 263 262 261 259 258 257 255 254 253 252 251 250 250 249 249 249 248 248 248 247 247 247 247 247 247 247 247 247 247 247 247 248 248 249 250 251 251 251 252 253 253 254 255 256 256 256 257 257 257 258 259 260 262 263 264 264